Weather History for Hattiesburg, MS

Change the Weather History Date:

Monday, September 10, 2012

  Actual Average Record
Temperature  
Mean Temperature 72 °F 79 °F  
Max Temperature 87 °F 89 °F 100 °F (1954)
Min Temperature 57 °F 68 °F 53 °F (1956)
Degree Days  
Heating Degree Days 0 0  
Month to date heating degree days 0 0  
Since 1 July heating degree days 0 0  
Cooling Degree Days 7 14  
Month to date cooling degree days 166 145  
Year to date cooling degree days 2410 2016  
Growing Degree Days 22 (Base 50)    
Moisture  
Dew Point 59 °F    
Average Humidity 66    
Maximum Humidity 97    
Minimum Humidity 35    
Precipitation  
Precipitation 0.00 in 0.15 in 0.68 in (1965)
Month to date precipitation 0.96 1.39  
Year to date precipitation 54.32 43.55  
Sea Level Pressure  
Sea Level Pressure 30.08 in    
Wind  
Wind Speed 2 mph (NE)    
Max Wind Speed 13 mph    
Max Gust Speed -    
Visibility 10 miles    
Events      
T = Trace of Precipitation, MM = Missing Value Source: NWS Daily Summary

Daily Weather History Graph

Daily Weather History Graph

Search for Another Location

Airport:

Trip Planner

Search our weather history database for the weather conditions in past years. The results will help you decide how hot, cold, wet, or windy it might be!

Date:

Astronomy

Sep. 10, 2012 Rise Set
Actual Time 6:38 AM CDT 7:08 PM CDT
Civil Twilight 6:14 AM CDT 7:32 PM CDT
Nautical Twilight 5:45 AM CDT 8:01 PM CDT
Astronomical Twilight 5:16 AM CDT 8:30 PM CDT
Moon 1:15 AM CDT (9/10) 3:23 PM CDT (9/10)
Length of Visible Light 13h 18m
Length of Day
12h 29m
Waning Crescent, 30% of the Moon is Illuminated
Sep 10
Waning Crescent
Sep 15
New
Sep 22
First Quarter
Sep 29
Full
Oct 8
Last Quarter

Hourly Weather History & Observations

Time (CDT) Temp. Heat Index Dew Point Humidity Pressure Visibility Wind Dir Wind Speed Gust Speed Precip Events Conditions
12:53 AM 61.0 °F - 59.0 °F 93% 30.06 in - Calm Calm - N/A   Clear
1:53 AM 61.0 °F - 57.9 °F 90% 30.06 in - Calm Calm - N/A   Clear
2:53 AM 59.0 °F - 57.0 °F 93% 30.06 in - Calm Calm - N/A   Clear
3:53 AM 59.0 °F - 57.0 °F 93% 30.06 in - Calm Calm - N/A   Clear
4:53 AM 59.0 °F - 57.0 °F 93% 30.06 in - Calm Calm - N/A   Clear
5:53 AM 57.9 °F - 55.9 °F 93% 30.07 in - Calm Calm - N/A   Clear
6:53 AM 57.9 °F - 55.9 °F 93% 30.09 in - Calm Calm - N/A   Clear
7:53 AM 63.0 °F - 59.0 °F 87% 30.11 in - Calm Calm - N/A   Unknown
8:53 AM 69.1 °F - 61.0 °F 75% 30.12 in - Calm Calm - N/A   Clear
11:53 AM 82.9 °F 82.4 °F 57.0 °F 41% 30.12 in - ENE 9.2 mph - N/A   Clear
12:53 PM 82.9 °F 82.0 °F 55.0 °F 38% 30.10 in 10.0 mi Variable 6.9 mph - 0.01 in   Clear
2:53 PM 86.0 °F 84.5 °F 55.0 °F 35% 30.06 in 10.0 mi NE 4.6 mph - N/A   Clear
3:53 PM 86.0 °F 84.9 °F 57.0 °F 37% 30.06 in 10.0 mi NNE 6.9 mph - N/A   Clear
4:53 PM 84.9 °F 83.9 °F 57.0 °F 38% 30.06 in 10.0 mi NNE 6.9 mph - N/A   Clear
5:53 PM 84.0 °F 83.5 °F 57.9 °F 41% 30.06 in 10.0 mi NE 5.8 mph - N/A   Partly Cloudy
6:53 PM 78.1 °F - 63.0 °F 60% 30.06 in 10.0 mi Calm Calm - N/A   Clear
7:53 PM 72.0 °F - 64.0 °F 76% 30.06 in 10.0 mi Calm Calm - N/A   Clear
8:53 PM 69.1 °F - 64.0 °F 84% 30.09 in 10.0 mi Calm Calm - N/A   Clear
9:53 PM 66.9 °F - 64.0 °F 90% 30.10 in 10.0 mi Calm Calm - N/A   Partly Cloudy
10:53 PM 64.9 °F - 63.0 °F 93% 30.10 in 10.0 mi Calm Calm - N/A   Clear
11:53 PM 64.0 °F - 62.1 °F 93% 30.09 in 10.0 mi Calm Calm - N/A   Clear